Time,TemperatureF,DewpointF,PressureIn,WindDirection,WindDirectionDegrees,WindSpeedMPH,WindSpeedGustMPH,Humidity,HourlyPrecipIn,Conditions,Clouds,dailyrainin,SoftwareType,DateUTC
2013-06-10 00:02:00,46.6,35.1,29.87,NNW,339,7.0,7.0,64,0.00,,---,0.00,VWS V14.01,2013-06-10 06:02:00,
2013-06-10 00:07:00,46.3,34.4,29.87,NNW,339,9.0,9.0,63,0.00,,---,0.00,VWS V14.01,2013-06-10 06:07:00,
2013-06-10 00:12:00,46.3,34.4,29.87,NNW,339,1.0,1.0,63,0.00,,---,0.00,VWS V14.01,2013-06-10 06:12:00,
2013-06-10 00:17:00,46.3,34.8,29.87,NNW,339,4.0,6.0,64,0.00,,---,0.00,VWS V14.01,2013-06-10 06:17:00,
2013-06-10 00:22:00,46.0,34.5,29.87,NNW,339,6.0,6.0,64,0.00,,---,0.00,VWS V14.01,2013-06-10 06:22:00,
2013-06-10 00:27:00,45.5,34.0,29.87,NNW,339,4.0,4.0,64,0.00,,---,0.00,VWS V14.01,2013-06-10 06:27:00,
2013-06-10 00:32:00,45.4,34.7,29.87,NNW,339,5.0,5.0,66,0.00,,---,0.00,VWS V14.01,2013-06-10 06:32:00,
2013-06-10 00:37:00,45.0,34.7,29.87,NNW,339,6.0,6.0,67,0.00,,---,0.00,VWS V14.01,2013-06-10 06:37:00,
2013-06-10 00:42:00,44.7,33.7,29.87,NNW,339,0.0,0.0,65,0.00,,---,0.00,VWS V14.01,2013-06-10 06:42:00,
2013-06-10 00:47:00,44.5,33.9,29.87,NNW,339,0.0,0.0,66,0.00,,---,0.00,VWS V14.01,2013-06-10 06:47:00,
2013-06-10 00:52:00,44.3,33.7,29.86,NNW,339,0.0,0.0,66,0.00,,---,0.00,VWS V14.01,2013-06-10 06:52:00,
2013-06-10 00:57:00,44.3,34.4,29.87,NNW,339,0.0,0.0,68,0.00,,---,0.00,VWS V14.01,2013-06-10 06:57:00,
2013-06-10 01:02:00,44.1,34.2,29.86,NNW,339,6.0,6.0,68,0.00,,---,0.00,VWS V14.01,2013-06-10 07:02:00,
2013-06-10 01:07:00,43.7,34.2,29.86,NNW,339,6.0,7.0,69,0.00,,---,0.00,VWS V14.01,2013-06-10 07:07:00,
2013-06-10 01:12:00,43.2,33.4,29.86,NNW,339,7.0,7.0,68,0.00,,---,0.00,VWS V14.01,2013-06-10 07:12:00,
2013-06-10 01:17:00,43.7,33.8,29.86,NNW,339,3.0,3.0,68,0.00,,---,0.00,VWS V14.01,2013-06-10 07:17:00,
2013-06-10 01:22:00,44.0,33.8,29.86,NNW,339,0.0,0.0,67,0.00,,---,0.00,VWS V14.01,2013-06-10 07:22:00,
2013-06-10 01:27:00,44.0,33.8,29.86,NNW,339,0.0,0.0,67,0.00,,---,0.00,VWS V14.01,2013-06-10 07:27:00,
2013-06-10 01:32:00,44.0,34.1,29.86,NNW,339,3.0,3.0,68,0.00,,---,0.00,VWS V14.01,2013-06-10 07:32:00,
2013-06-10 01:37:00,44.1,34.2,29.86,NNW,339,2.0,2.0,68,0.00,,---,0.00,VWS V14.01,2013-06-10 07:37:00,
2013-06-10 01:42:00,43.8,33.6,29.86,NNW,339,2.0,2.0,67,0.00,,---,0.00,VWS V14.01,2013-06-10 07:42:00,
2013-06-10 01:47:00,43.6,33.8,29.86,NNW,339,0.0,0.0,68,0.00,,---,0.00,VWS V14.01,2013-06-10 07:47:00,
2013-06-10 01:52:00,43.6,33.4,29.86,NNW,339,4.0,4.0,67,0.00,,---,0.00,VWS V14.01,2013-06-10 07:52:00,
2013-06-10 01:57:00,43.3,33.8,29.85,NNW,339,6.0,7.0,69,0.00,,---,0.00,VWS V14.01,2013-06-10 07:57:00,
2013-06-10 02:02:00,42.6,33.5,29.85,NNW,339,5.0,6.0,70,0.00,,---,0.00,VWS V14.01,2013-06-10 08:02:00,
2013-06-10 02:07:00,42.2,32.8,29.86,NNW,339,0.0,0.0,69,0.00,,---,0.00,VWS V14.01,2013-06-10 08:07:00,
2013-06-10 02:12:00,41.9,32.8,29.86,NNW,338,0.0,0.0,70,0.00,,---,0.00,VWS V14.01,2013-06-10 08:12:00,
2013-06-10 02:17:00,41.5,33.2,29.86,NNW,339,4.0,5.0,72,0.00,,---,0.00,VWS V14.01,2013-06-10 08:17:00,
2013-06-10 02:22:00,41.4,33.1,29.85,NNW,339,0.0,0.0,72,0.00,,---,0.00,VWS V14.01,2013-06-10 08:22:00,
2013-06-10 02:27:00,41.7,33.0,29.85,NNW,339,0.0,2.0,71,0.00,,---,0.00,VWS V14.01,2013-06-10 08:27:00,
2013-06-10 02:33:00,42.0,33.3,29.85,NNW,339,0.0,0.0,71,0.00,,---,0.00,VWS V14.01,2013-06-10 08:33:00,
2013-06-10 02:38:00,42.1,33.4,29.85,NNW,339,4.0,5.0,71,0.00,,---,0.00,VWS V14.01,2013-06-10 08:38:00,
2013-06-10 02:43:00,41.9,33.2,29.85,NNW,339,0.0,2.0,71,0.00,,---,0.00,VWS V14.01,2013-06-10 08:43:00,
2013-06-10 02:48:00,41.6,32.6,29.86,NNW,339,0.0,0.0,70,0.00,,---,0.00,VWS V14.01,2013-06-10 08:48:00,
2013-06-10 02:53:00,41.5,33.2,29.86,NNW,339,0.0,0.0,72,0.00,,---,0.00,VWS V14.01,2013-06-10 08:53:00,
2013-06-10 02:58:00,41.5,33.2,29.86,NNW,339,0.0,0.0,72,0.00,,---,0.00,VWS V14.01,2013-06-10 08:58:00,
2013-06-10 03:03:00,41.4,33.1,29.86,NNW,339,0.0,0.0,72,0.00,,---,0.00,VWS V14.01,2013-06-10 09:03:00,
2013-06-10 03:08:00,41.4,33.1,29.86,NNW,339,4.0,4.0,72,0.00,,---,0.00,VWS V14.01,2013-06-10 09:08:00,
2013-06-10 03:13:00,41.0,33.0,29.86,NNW,339,4.0,5.0,73,0.00,,---,0.00,VWS V14.01,2013-06-10 09:13:00,
2013-06-10 03:18:00,40.9,33.3,29.86,NNW,339,6.0,7.0,74,0.00,,---,0.00,VWS V14.01,2013-06-10 09:18:00,
2013-06-10 03:23:00,41.0,33.0,29.85,NNW,339,5.0,5.0,73,0.00,,---,0.00,VWS V14.01,2013-06-10 09:23:00,
2013-06-10 03:28:00,41.3,32.6,29.85,NNW,339,0.0,0.0,71,0.00,,---,0.00,VWS V14.01,2013-06-10 09:28:00,
2013-06-10 03:33:00,41.4,33.1,29.85,NNW,339,0.0,0.0,72,0.00,,---,0.00,VWS V14.01,2013-06-10 09:33:00,
2013-06-10 03:38:00,41.1,32.8,29.85,NNW,339,0.0,0.0,72,0.00,,---,0.00,VWS V14.01,2013-06-10 09:38:00,
2013-06-10 03:43:00,40.7,32.4,29.85,NNW,339,1.0,4.0,72,0.00,,---,0.00,VWS V14.01,2013-06-10 09:43:00,
2013-06-10 03:48:00,40.4,32.1,29.85,NNW,339,2.0,3.0,72,0.00,,---,0.00,VWS V14.01,2013-06-10 09:48:00,
2013-06-10 03:53:00,40.5,32.2,29.85,NNW,339,0.0,0.0,72,0.00,,---,0.00,VWS V14.01,2013-06-10 09:53:00,
2013-06-10 03:58:00,40.5,32.2,29.86,NNW,339,0.0,0.0,72,0.00,,---,0.00,VWS V14.01,2013-06-10 09:58:00,
2013-06-10 04:03:00,40.5,31.9,29.86,NNW,339,0.0,0.0,71,0.00,,---,0.00,VWS V14.01,2013-06-10 10:03:00,
2013-06-10 04:08:00,40.1,32.2,29.86,NNW,339,2.0,2.0,73,0.00,,---,0.00,VWS V14.01,2013-06-10 10:08:00,
2013-06-10 04:13:00,39.7,32.4,29.86,NNW,339,6.0,6.0,75,0.00,,---,0.00,VWS V14.01,2013-06-10 10:13:00,
2013-06-10 04:18:00,39.5,31.9,29.86,NNW,339,0.0,0.0,74,0.00,,---,0.00,VWS V14.01,2013-06-10 10:18:00,
2013-06-10 04:23:00,39.6,32.0,29.86,NNW,339,0.0,0.0,74,0.00,,---,0.00,VWS V14.01,2013-06-10 10:23:00,
2013-06-10 04:28:00,39.6,31.7,29.86,NNW,339,0.0,0.0,73,0.00,,---,0.00,VWS V14.01,2013-06-10 10:28:00,
2013-06-10 04:33:00,39.5,31.6,29.86,NNW,339,0.0,0.0,73,0.00,,---,0.00,VWS V14.01,2013-06-10 10:33:00,
2013-06-10 04:38:00,39.6,32.0,29.86,NNW,339,7.0,7.0,74,0.00,,---,0.00,VWS V14.01,2013-06-10 10:38:00,
2013-06-10 04:43:00,39.8,32.2,29.86,NNW,338,4.0,4.0,74,0.00,,---,0.00,VWS V14.01,2013-06-10 10:43:00,
2013-06-10 04:48:00,40.2,32.2,29.86,NNW,338,5.0,5.0,73,0.00,,---,0.00,VWS V14.01,2013-06-10 10:48:00,
2013-06-10 04:53:00,40.7,32.4,29.86,NNW,338,2.0,3.0,72,0.00,,---,0.00,VWS V14.01,2013-06-10 10:53:00,
2013-06-10 04:58:00,40.7,31.7,29.86,NNW,338,0.0,0.0,70,0.00,,---,0.00,VWS V14.01,2013-06-10 10:58:00,
2013-06-10 05:03:00,40.5,31.9,29.86,NNW,338,0.0,0.0,71,0.00,,---,0.00,VWS V14.01,2013-06-10 11:03:00,
2013-06-10 05:08:00,40.4,32.1,29.86,NNW,338,0.0,0.0,72,0.00,,---,0.00,VWS V14.01,2013-06-10 11:08:00,
2013-06-10 05:13:00,40.5,32.2,29.86,NNW,338,0.0,0.0,72,0.00,,---,0.00,VWS V14.01,2013-06-10 11:13:00,
2013-06-10 05:18:00,40.4,31.8,29.86,NNW,338,0.0,0.0,71,0.00,,---,0.00,VWS V14.01,2013-06-10 11:18:00,
2013-06-10 05:23:00,40.2,31.6,29.86,NNW,338,0.0,0.0,71,0.00,,---,0.00,VWS V14.01,2013-06-10 11:23:00,
2013-06-10 05:28:00,39.8,31.9,29.86,NNW,338,0.0,0.0,73,0.00,,---,0.00,VWS V14.01,2013-06-10 11:28:00,
2013-06-10 05:33:00,39.2,31.6,29.86,NNW,338,1.0,2.0,74,0.00,,---,0.00,VWS V14.01,2013-06-10 11:33:00,
2013-06-10 05:38:00,38.6,31.4,29.87,NNW,338,0.0,0.0,75,0.00,,---,0.00,VWS V14.01,2013-06-10 11:38:00,
2013-06-10 05:43:00,38.2,31.3,29.87,NNW,338,0.0,0.0,76,0.00,,---,0.00,VWS V14.01,2013-06-10 11:43:00,
2013-06-10 05:48:00,38.0,31.4,29.86,NNW,338,0.0,0.0,77,0.00,,---,0.00,VWS V14.01,2013-06-10 11:48:00,
2013-06-10 05:53:00,37.8,31.6,29.87,NNW,338,0.0,0.0,78,0.00,,---,0.00,VWS V14.01,2013-06-10 11:53:00,
2013-06-10 05:58:00,37.7,31.8,29.87,NNW,338,4.0,5.0,79,0.00,,---,0.00,VWS V14.01,2013-06-10 11:58:00,
2013-06-10 06:03:00,37.7,31.8,29.87,NNW,338,4.0,5.0,79,0.00,,---,0.00,VWS V14.01,2013-06-10 12:03:00,
2013-06-10 06:08:00,37.6,31.7,29.87,NNW,338,2.0,3.0,79,0.00,,---,0.00,VWS V14.01,2013-06-10 12:08:00,
2013-06-10 06:13:00,37.6,31.7,29.87,NNW,338,0.0,1.0,79,0.00,,---,0.00,VWS V14.01,2013-06-10 12:13:00,
2013-06-10 06:18:00,37.6,31.7,29.87,NNW,338,0.0,0.0,79,0.00,,---,0.00,VWS V14.01,2013-06-10 12:18:00,
2013-06-10 06:23:00,37.7,31.8,29.87,NNW,338,0.0,1.0,79,0.00,,---,0.00,VWS V14.01,2013-06-10 12:23:00,
2013-06-10 06:28:00,37.9,31.7,29.87,West,261,0.0,0.0,78,0.00,,---,0.00,VWS V14.01,2013-06-10 12:28:00,
2013-06-10 06:33:00,38.0,31.8,29.87,West,261,0.0,0.0,78,0.00,,---,0.00,VWS V14.01,2013-06-10 12:33:00,
2013-06-10 06:38:00,38.1,31.9,29.87,WSW,250,0.0,0.0,78,0.00,,---,0.00,VWS V14.01,2013-06-10 12:38:00,
2013-06-10 06:43:00,37.9,31.4,29.87,WSW,250,3.0,3.0,77,0.00,,---,0.00,VWS V14.01,2013-06-10 12:43:00,
2013-06-10 06:48:00,37.3,31.4,29.87,WSW,250,0.0,0.0,79,0.00,,---,0.00,VWS V14.01,2013-06-10 12:48:00,
2013-06-10 06:53:00,37.0,31.4,29.88,WSW,250,0.0,0.0,80,0.00,,---,0.00,VWS V14.01,2013-06-10 12:53:00,
2013-06-10 06:58:00,36.8,31.5,29.88,WSW,249,0.0,0.0,81,0.00,,---,0.00,VWS V14.01,2013-06-10 12:58:00,
2013-06-10 07:03:00,36.9,31.9,29.87,WSW,250,0.0,0.0,82,0.00,,---,0.00,VWS V14.01,2013-06-10 13:03:00,
2013-06-10 07:08:00,36.9,31.6,29.88,WSW,250,0.0,0.0,81,0.00,,---,0.00,VWS V14.01,2013-06-10 13:08:00,
2013-06-10 07:14:00,37.1,32.1,29.88,WSW,250,3.0,3.0,82,0.00,,---,0.00,VWS V14.01,2013-06-10 13:14:00,
2013-06-10 07:19:00,37.3,32.3,29.88,WSW,250,0.0,0.0,82,0.00,,---,0.00,VWS V14.01,2013-06-10 13:19:00,
2013-06-10 07:24:00,37.4,32.4,29.88,WSW,250,0.0,0.0,82,0.00,,---,0.00,VWS V14.01,2013-06-10 13:24:00,
2013-06-10 07:29:00,37.7,32.7,29.88,WSW,250,0.0,0.0,82,0.00,,---,0.00,VWS V14.01,2013-06-10 13:29:00,
2013-06-10 07:34:00,38.1,32.5,29.88,WSW,250,0.0,0.0,80,0.00,,---,0.00,VWS V14.01,2013-06-10 13:34:00,
2013-06-10 07:39:00,38.6,32.3,29.88,WSW,250,0.0,0.0,78,0.00,,---,0.00,VWS V14.01,2013-06-10 13:39:00,
2013-06-10 07:44:00,39.2,33.6,29.87,WSW,250,0.0,0.0,80,0.00,,---,0.00,VWS V14.01,2013-06-10 13:44:00,
2013-06-10 07:49:00,40.7,34.7,29.87,WSW,250,0.0,2.0,79,0.00,,---,0.00,VWS V14.01,2013-06-10 13:49:00,
2013-06-10 07:54:00,42.7,36.0,29.87,WSW,250,0.0,0.0,77,0.00,,---,0.00,VWS V14.01,2013-06-10 13:54:00,
2013-06-10 07:59:00,44.9,36.4,29.88,WSW,250,0.0,0.0,72,0.00,,---,0.00,VWS V14.01,2013-06-10 13:59:00,
2013-06-10 08:04:00,46.8,36.4,29.87,WSW,250,0.0,0.0,67,0.00,,---,0.00,VWS V14.01,2013-06-10 14:04:00,
2013-06-10 08:09:00,48.7,37.5,29.87,WSW,250,0.0,0.0,65,0.00,,---,0.00,VWS V14.01,2013-06-10 14:09:00,
2013-06-10 08:14:00,50.4,37.0,29.87,WSW,250,0.0,0.0,60,0.00,,---,0.00,VWS V14.01,2013-06-10 14:14:00,
2013-06-10 08:19:00,52.0,38.6,29.87,WSW,250,0.0,1.0,60,0.00,,---,0.00,VWS V14.01,2013-06-10 14:19:00,
2013-06-10 08:24:00,52.1,38.7,29.87,WSW,249,0.0,2.0,60,0.00,,---,0.00,VWS V14.01,2013-06-10 14:24:00,
2013-06-10 08:29:00,52.0,37.2,29.87,WSW,249,0.0,0.0,57,0.00,,---,0.00,VWS V14.01,2013-06-10 14:29:00,
2013-06-10 08:34:00,52.5,35.4,29.87,WSW,249,0.0,0.0,52,0.00,,---,0.00,VWS V14.01,2013-06-10 14:34:00,
2013-06-10 08:39:00,53.3,36.6,29.87,WSW,249,0.0,0.0,53,0.00,,---,0.00,VWS V14.01,2013-06-10 14:39:00,
2013-06-10 08:44:00,54.7,36.4,29.87,WSW,249,0.0,0.0,50,0.00,,---,0.00,VWS V14.01,2013-06-10 14:44:00,
2013-06-10 08:49:00,55.7,38.8,29.87,WSW,249,0.0,0.0,53,0.00,,---,0.00,VWS V14.01,2013-06-10 14:49:00,
2013-06-10 08:54:00,56.2,37.8,29.86,SSW,194,2.0,2.0,50,0.00,,---,0.00,VWS V14.01,2013-06-10 14:54:00,
2013-06-10 08:59:00,56.8,36.8,29.86,SSW,194,1.0,1.0,47,0.00,,---,0.00,VWS V14.01,2013-06-10 14:59:00,
2013-06-10 09:04:00,57.4,38.4,29.86,SSW,194,0.0,0.0,49,0.00,,---,0.00,VWS V14.01,2013-06-10 15:04:00,
2013-06-10 09:09:00,58.2,40.2,29.86,SSW,194,2.0,2.0,51,0.00,,---,0.00,VWS V14.01,2013-06-10 15:09:00,
2013-06-10 09:14:00,59.0,39.4,29.86,SSW,194,0.0,0.0,48,0.00,,---,0.00,VWS V14.01,2013-06-10 15:14:00,
2013-06-10 09:19:00,59.5,39.3,29.86,South,174,3.0,3.0,47,0.00,,---,0.00,VWS V14.01,2013-06-10 15:19:00,
2013-06-10 09:24:00,59.7,38.3,29.86,SSE,168,3.0,3.0,45,0.00,,---,0.00,VWS V14.01,2013-06-10 15:24:00,
2013-06-10 09:29:00,60.4,36.6,29.86,SSE,168,3.0,3.0,41,0.00,,---,0.00,VWS V14.01,2013-06-10 15:29:00,
2013-06-10 09:34:00,60.8,38.8,29.86,SSE,168,1.0,1.0,44,0.00,,---,0.00,VWS V14.01,2013-06-10 15:34:00,
2013-06-10 09:39:00,61.5,39.4,29.86,SSE,168,3.0,3.0,44,0.00,,---,0.00,VWS V14.01,2013-06-10 15:39:00,
2013-06-10 09:44:00,61.5,38.2,29.85,SSE,156,0.0,1.0,42,0.00,,---,0.00,VWS V14.01,2013-06-10 15:44:00,
2013-06-10 09:49:00,61.9,37.3,29.85,SSE,156,0.0,0.0,40,0.00,,---,0.00,VWS V14.01,2013-06-10 15:49:00,
2013-06-10 09:54:00,62.6,39.8,29.85,SSE,150,1.0,1.0,43,0.00,,---,0.00,VWS V14.01,2013-06-10 15:54:00,
2013-06-10 09:59:00,63.6,40.1,29.85,SSE,150,0.0,0.0,42,0.00,,---,0.00,VWS V14.01,2013-06-10 15:59:00,
2013-06-10 10:04:00,64.1,38.0,29.85,SSE,150,2.0,3.0,38,0.00,,---,0.00,VWS V14.01,2013-06-10 16:04:00,
2013-06-10 10:09:00,64.5,39.7,29.84,SSE,151,0.0,0.0,40,0.00,,---,0.00,VWS V14.01,2013-06-10 16:09:00,
2013-06-10 10:14:00,65.8,35.2,29.84,ESE,113,7.0,7.0,32,0.00,,---,0.00,VWS V14.01,2013-06-10 16:14:00,
2013-06-10 10:19:00,66.2,37.8,29.84,SE,144,9.0,9.0,35,0.00,,---,0.00,VWS V14.01,2013-06-10 16:19:00,
2013-06-10 10:24:00,66.3,40.0,29.84,SSE,161,7.0,7.0,38,0.00,,---,0.00,VWS V14.01,2013-06-10 16:24:00,
2013-06-10 10:29:00,66.8,41.1,29.84,SSE,147,5.0,6.0,39,0.00,,---,0.00,VWS V14.01,2013-06-10 16:29:00,
2013-06-10 10:34:00,67.0,40.6,29.83,SSE,152,6.0,7.0,38,0.00,,---,0.00,VWS V14.01,2013-06-10 16:34:00,
2013-06-10 10:39:00,67.6,40.4,29.83,SE,140,7.0,8.0,37,0.00,,---,0.00,VWS V14.01,2013-06-10 16:39:00,
2013-06-10 10:44:00,67.6,38.3,29.83,SSE,155,7.0,7.0,34,0.00,,---,0.00,VWS V14.01,2013-06-10 16:44:00,
2013-06-10 10:49:00,68.7,39.2,29.83,SE,134,5.0,7.0,34,0.00,,---,0.00,VWS V14.01,2013-06-10 16:49:00,
2013-06-10 10:54:00,69.2,39.7,29.83,SSE,163,3.0,6.0,34,0.00,,---,0.00,VWS V14.01,2013-06-10 16:54:00,
2013-06-10 10:59:00,70.2,41.3,29.83,SE,144,5.0,8.0,35,0.00,,---,0.00,VWS V14.01,2013-06-10 16:59:00,
2013-06-10 11:04:00,70.7,39.4,29.83,SSE,150,4.0,5.0,32,0.00,,---,0.00,VWS V14.01,2013-06-10 17:04:00,
2013-06-10 11:10:00,71.0,38.0,29.82,South,169,11.0,12.0,30,0.00,,---,0.00,VWS V14.01,2013-06-10 17:10:00,
2013-06-10 11:15:00,71.3,37.4,29.82,SSE,153,9.0,9.0,29,0.00,,---,0.00,VWS V14.01,2013-06-10 17:15:00,
2013-06-10 11:20:00,71.7,39.5,29.82,South,173,8.0,8.0,31,0.00,,---,0.00,VWS V14.01,2013-06-10 17:20:00,
2013-06-10 11:25:00,72.0,38.9,29.82,SSE,165,7.0,7.0,30,0.00,,---,0.00,VWS V14.01,2013-06-10 17:25:00,
2013-06-10 11:30:00,72.1,38.1,29.82,SSW,194,8.0,8.0,29,0.00,,---,0.00,VWS V14.01,2013-06-10 17:30:00,
2013-06-10 11:35:00,72.3,40.0,29.82,ESE,123,8.0,8.0,31,0.00,,---,0.00,VWS V14.01,2013-06-10 17:35:00,
2013-06-10 11:40:00,72.2,34.5,29.82,SSE,159,1.0,1.0,25,0.00,,---,0.00,VWS V14.01,2013-06-10 17:40:00,
2013-06-10 11:45:00,72.1,37.2,29.82,SSE,159,0.0,1.0,28,0.00,,---,0.00,VWS V14.01,2013-06-10 17:45:00,
2013-06-10 11:50:00,72.5,38.5,29.82,SSE,159,0.0,0.0,29,0.00,,---,0.00,VWS V14.01,2013-06-10 17:50:00,
2013-06-10 11:55:00,72.8,38.7,29.82,SSE,159,2.0,2.0,29,0.00,,---,0.00,VWS V14.01,2013-06-10 17:55:00,
2013-06-10 12:00:00,72.4,37.5,29.82,NNE,31,3.0,4.0,28,0.00,,---,0.00,VWS V14.01,2013-06-10 18:00:00,
2013-06-10 12:05:00,72.2,38.2,29.81,NNE,31,1.0,1.0,29,0.00,,---,0.00,VWS V14.01,2013-06-10 18:05:00,
2013-06-10 12:10:00,72.8,39.6,29.81,NNE,20,6.0,6.0,30,0.00,,---,0.00,VWS V14.01,2013-06-10 18:10:00,
2013-06-10 12:15:00,73.2,39.9,29.81,NNE,28,6.0,7.0,30,0.00,,---,0.00,VWS V14.01,2013-06-10 18:15:00,
2013-06-10 12:20:00,73.5,36.5,29.81,NNW,343,5.0,6.0,26,0.00,,---,0.00,VWS V14.01,2013-06-10 18:20:00,
2013-06-10 12:25:00,74.8,34.6,29.81,NNW,333,0.0,3.0,23,0.00,,---,0.00,VWS V14.01,2013-06-10 18:25:00,
2013-06-10 12:30:00,76.1,34.5,29.81,SW,230,12.0,12.0,22,0.00,,---,0.00,VWS V14.01,2013-06-10 18:30:00,
2013-06-10 12:35:00,76.8,28.7,29.81,WSW,251,5.0,7.0,17,0.00,,---,0.00,VWS V14.01,2013-06-10 18:35:00,
2013-06-10 12:40:00,77.2,27.6,29.80,WNW,288,11.0,12.0,16,0.00,,---,0.00,VWS V14.01,2013-06-10 18:40:00,
2013-06-10 12:45:00,77.0,27.4,29.79,NNW,334,12.0,12.0,16,0.00,,---,0.00,VWS V14.01,2013-06-10 18:45:00,
2013-06-10 12:50:00,76.1,29.6,29.80,West,265,11.0,11.0,18,0.00,,---,0.00,VWS V14.01,2013-06-10 18:50:00,
2013-06-10 12:55:00,75.4,35.1,29.80,NW,313,0.0,1.0,23,0.00,,---,0.00,VWS V14.01,2013-06-10 18:55:00,
2013-06-10 13:00:00,75.1,27.4,29.80,NW,306,7.0,10.0,17,0.00,,---,0.00,VWS V14.01,2013-06-10 19:00:00,
2013-06-10 13:05:00,74.6,34.4,29.80,NW,314,13.0,13.0,23,0.00,,---,0.00,VWS V14.01,2013-06-10 19:05:00,
2013-06-10 13:10:00,74.8,28.5,29.80,WSW,256,6.0,7.0,18,0.00,,---,0.00,VWS V14.01,2013-06-10 19:10:00,
2013-06-10 13:15:00,75.0,31.2,29.80,WSW,251,3.0,4.0,20,0.00,,---,0.00,VWS V14.01,2013-06-10 19:15:00,
2013-06-10 13:20:00,76.3,32.3,29.79,WSW,254,17.0,17.0,20,0.00,,---,0.00,VWS V14.01,2013-06-10 19:20:00,
2013-06-10 13:25:00,76.9,28.8,29.80,SSW,205,8.0,10.0,17,0.00,,---,0.00,VWS V14.01,2013-06-10 19:25:00,
2013-06-10 13:30:00,77.5,30.7,29.80,SSW,198,7.0,7.0,18,0.00,,---,0.00,VWS V14.01,2013-06-10 19:30:00,
2013-06-10 13:35:00,76.8,27.2,29.79,SSW,205,9.0,12.0,16,0.00,,---,0.00,VWS V14.01,2013-06-10 19:35:00,
2013-06-10 13:40:00,77.7,26.4,29.79,WSW,250,5.0,11.0,15,0.00,,---,0.00,VWS V14.01,2013-06-10 19:40:00,
2013-06-10 13:45:00,78.5,30.1,29.79,SW,217,12.0,12.0,17,0.00,,---,0.00,VWS V14.01,2013-06-10 19:45:00,
2013-06-10 13:50:00,77.8,29.5,29.79,West,275,11.0,11.0,17,0.00,,---,0.00,VWS V14.01,2013-06-10 19:50:00,
2013-06-10 13:55:00,78.0,32.4,29.79,WNW,303,3.0,3.0,19,0.00,,---,0.00,VWS V14.01,2013-06-10 19:55:00,
2013-06-10 14:00:00,78.4,31.4,29.79,West,273,12.0,12.0,18,0.00,,---,0.00,VWS V14.01,2013-06-10 20:00:00,
2013-06-10 14:05:00,79.1,29.1,29.79,SW,232,9.0,10.0,16,0.00,,---,0.00,VWS V14.01,2013-06-10 20:05:00,
2013-06-10 14:10:00,78.7,25.5,29.78,SW,220,5.0,8.0,14,0.00,,---,0.00,VWS V14.01,2013-06-10 20:10:00,
2013-06-10 14:15:00,78.9,27.4,29.78,SSW,211,11.0,13.0,15,0.00,,---,0.00,VWS V14.01,2013-06-10 20:15:00,
2013-06-10 14:20:00,78.8,28.9,29.78,South,183,2.0,3.0,16,0.00,,---,0.00,VWS V14.01,2013-06-10 20:20:00,
2013-06-10 14:25:00,78.6,32.9,29.78,North,360,0.0,2.0,19,0.00,,---,0.00,VWS V14.01,2013-06-10 20:25:00,
2013-06-10 14:30:00,80.1,29.9,29.77,SW,231,24.0,25.0,16,0.00,,---,0.00,VWS V14.01,2013-06-10 20:30:00,
2013-06-10 14:35:00,79.8,28.1,29.78,WSW,248,11.0,15.0,15,0.00,,---,0.00,VWS V14.01,2013-06-10 20:35:00,
2013-06-10 14:40:00,79.6,27.9,29.78,South,190,14.0,14.0,15,0.00,,---,0.00,VWS V14.01,2013-06-10 20:40:00,
2013-06-10 14:45:00,78.8,27.3,29.78,West,269,5.0,5.0,15,0.00,,---,0.00,VWS V14.01,2013-06-10 20:45:00,
2013-06-10 14:51:00,78.7,25.5,29.77,SSW,210,12.0,12.0,14,0.00,,---,0.00,VWS V14.01,2013-06-10 20:51:00,
2013-06-10 14:56:00,79.1,27.5,29.77,SSW,207,16.0,16.0,15,0.00,,---,0.00,VWS V14.01,2013-06-10 20:56:00,
2013-06-10 15:01:00,79.4,27.8,29.78,SW,235,6.0,9.0,15,0.00,,---,0.00,VWS V14.01,2013-06-10 21:01:00,
2013-06-10 15:06:00,79.2,25.9,29.78,SSW,207,22.0,26.0,14,0.00,,---,0.00,VWS V14.01,2013-06-10 21:06:00,
2013-06-10 15:11:00,78.5,28.6,29.78,SW,229,15.0,15.0,16,0.00,,---,0.00,VWS V14.01,2013-06-10 21:11:00,
2013-06-10 15:16:00,78.4,27.0,29.77,SSW,211,7.0,7.0,15,0.00,,---,0.00,VWS V14.01,2013-06-10 21:16:00,
2013-06-10 15:21:00,79.0,33.3,29.76,SSW,211,0.0,0.0,19,0.00,,---,0.00,VWS V14.01,2013-06-10 21:21:00,
2013-06-10 15:26:00,79.3,30.8,29.76,SW,217,8.0,10.0,17,0.00,,---,0.00,VWS V14.01,2013-06-10 21:26:00,
2013-06-10 15:31:00,79.4,30.8,29.75,WNW,303,11.0,16.0,17,0.00,,---,0.00,VWS V14.01,2013-06-10 21:31:00,
2013-06-10 15:36:00,79.3,27.7,29.76,West,276,7.0,10.0,15,0.00,,---,0.00,VWS V14.01,2013-06-10 21:36:00,
2013-06-10 15:41:00,79.0,25.8,29.76,WSW,252,10.0,10.0,14,0.00,,---,0.00,VWS V14.01,2013-06-10 21:41:00,
2013-06-10 15:46:00,79.2,29.2,29.75,West,281,19.0,19.0,16,0.00,,---,0.00,VWS V14.01,2013-06-10 21:46:00,
2013-06-10 15:51:00,78.5,30.1,29.76,WNW,288,8.0,12.0,17,0.00,,---,0.00,VWS V14.01,2013-06-10 21:51:00,
2013-06-10 15:56:00,78.1,28.3,29.75,NW,311,15.0,19.0,16,0.00,,---,0.00,VWS V14.01,2013-06-10 21:56:00,
2013-06-10 16:01:00,78.1,29.8,29.75,WNW,303,19.0,19.0,17,0.00,,---,0.00,VWS V14.01,2013-06-10 22:01:00,
2013-06-10 16:06:00,77.8,30.9,29.75,NW,320,6.0,8.0,18,0.00,,---,0.00,VWS V14.01,2013-06-10 22:06:00,
2013-06-10 16:11:00,77.2,27.6,29.75,WNW,294,9.0,11.0,16,0.00,,---,0.00,VWS V14.01,2013-06-10 22:11:00,
2013-06-10 16:16:00,77.2,31.8,29.75,North,5,10.0,10.0,19,0.00,,---,0.00,VWS V14.01,2013-06-10 22:16:00,
2013-06-10 16:22:00,77.5,30.7,29.74,WNW,296,10.0,11.0,18,0.00,,---,0.00,VWS V14.01,2013-06-10 22:22:00,
2013-06-10 16:27:00,78.4,28.5,29.75,West,277,14.0,17.0,16,0.00,,---,0.00,VWS V14.01,2013-06-10 22:27:00,
2013-06-10 16:32:00,78.9,31.8,29.74,West,268,7.0,7.0,18,0.00,,---,0.00,VWS V14.01,2013-06-10 22:32:00,
2013-06-10 16:37:00,79.1,30.6,29.74,WNW,300,1.0,5.0,17,0.00,,---,0.00,VWS V14.01,2013-06-10 22:37:00,
2013-06-10 16:42:00,78.9,30.4,29.74,West,268,12.0,12.0,17,0.00,,---,0.00,VWS V14.01,2013-06-10 22:42:00,
2013-06-10 16:47:00,78.7,27.2,29.74,West,271,15.0,16.0,15,0.00,,---,0.00,VWS V14.01,2013-06-10 22:47:00,
2013-06-10 16:52:00,78.9,27.4,29.74,West,275,8.0,8.0,15,0.00,,---,0.00,VWS V14.01,2013-06-10 22:52:00,
2013-06-10 16:57:00,78.9,28.9,29.73,WNW,298,17.0,17.0,16,0.00,,---,0.00,VWS V14.01,2013-06-10 22:57:00,
2013-06-10 17:02:00,78.4,25.3,29.73,West,269,7.0,12.0,14,0.00,,---,0.00,VWS V14.01,2013-06-10 23:02:00,
2013-06-10 17:07:00,77.9,26.6,29.73,WNW,285,5.0,11.0,15,0.00,,---,0.00,VWS V14.01,2013-06-10 23:07:00,
2013-06-10 17:12:00,78.3,34.0,29.73,NW,324,2.0,5.0,20,0.00,,---,0.00,VWS V14.01,2013-06-10 23:12:00,
2013-06-10 17:17:00,78.7,27.2,29.73,West,261,3.0,4.0,15,0.00,,---,0.00,VWS V14.01,2013-06-10 23:17:00,
2013-06-10 17:22:00,79.0,27.5,29.73,West,269,15.0,15.0,15,0.00,,---,0.00,VWS V14.01,2013-06-10 23:22:00,
2013-06-10 17:27:00,78.7,25.5,29.73,West,265,8.0,9.0,14,0.00,,---,0.00,VWS V14.01,2013-06-10 23:27:00,
2013-06-10 17:32:00,78.6,27.1,29.73,West,271,10.0,13.0,15,0.00,,---,0.00,VWS V14.01,2013-06-10 23:32:00,
2013-06-10 17:37:00,78.4,28.5,29.73,WSW,254,9.0,10.0,16,0.00,,---,0.00,VWS V14.01,2013-06-10 23:37:00,
2013-06-10 17:42:00,78.3,25.2,29.73,West,267,1.0,2.0,14,0.00,,---,0.00,VWS V14.01,2013-06-10 23:42:00,
2013-06-10 17:47:00,78.4,25.3,29.73,SW,229,5.0,9.0,14,0.00,,---,0.00,VWS V14.01,2013-06-10 23:47:00,
2013-06-10 17:52:00,78.3,26.9,29.73,SSW,194,12.0,12.0,15,0.00,,---,0.00,VWS V14.01,2013-06-10 23:52:00,
2013-06-10 17:57:00,78.1,28.3,29.72,West,277,9.0,9.0,16,0.00,,---,0.00,VWS V14.01,2013-06-10 23:57:00,
2013-06-10 18:02:00,78.0,23.2,29.73,SW,221,9.0,10.0,13,0.00,,---,0.00,VWS V14.01,2013-06-11 00:02:00,
2013-06-10 18:07:00,77.8,26.5,29.73,WNW,294,8.0,8.0,15,0.00,,---,0.00,VWS V14.01,2013-06-11 00:07:00,
2013-06-10 18:12:00,77.7,28.0,29.72,WSW,246,4.0,5.0,16,0.00,,---,0.00,VWS V14.01,2013-06-11 00:12:00,
2013-06-10 18:17:00,77.6,26.3,29.72,WNW,286,4.0,5.0,15,0.00,,---,0.00,VWS V14.01,2013-06-11 00:17:00,
2013-06-10 18:22:00,77.6,29.4,29.72,West,270,7.0,8.0,17,0.00,,---,0.00,VWS V14.01,2013-06-11 00:22:00,
2013-06-10 18:27:00,77.6,32.1,29.72,West,278,10.0,14.0,19,0.00,,---,0.00,VWS V14.01,2013-06-11 00:27:00,
2013-06-10 18:32:00,77.5,26.2,29.72,West,273,4.0,6.0,15,0.00,,---,0.00,VWS V14.01,2013-06-11 00:32:00,
2013-06-10 18:37:00,77.5,26.2,29.72,West,271,12.0,12.0,15,0.00,,---,0.00,VWS V14.01,2013-06-11 00:37:00,
2013-06-10 18:42:00,77.0,25.9,29.72,West,278,6.0,9.0,15,0.00,,---,0.00,VWS V14.01,2013-06-11 00:42:00,
2013-06-10 18:47:00,76.6,23.9,29.72,West,262,10.0,12.0,14,0.00,,---,0.00,VWS V14.01,2013-06-11 00:47:00,
2013-06-10 18:52:00,76.0,26.6,29.72,West,260,4.0,5.0,16,0.00,,---,0.00,VWS V14.01,2013-06-11 00:52:00,
2013-06-10 18:57:00,75.2,26.0,29.72,West,269,8.0,8.0,16,0.00,,---,0.00,VWS V14.01,2013-06-11 00:57:00,
2013-06-10 19:02:00,74.8,27.1,29.72,WNW,300,9.0,9.0,17,0.00,,---,0.00,VWS V14.01,2013-06-11 01:02:00,
2013-06-10 19:07:00,74.4,26.8,29.72,WNW,300,7.0,7.0,17,0.00,,---,0.00,VWS V14.01,2013-06-11 01:07:00,
2013-06-10 19:12:00,73.6,26.1,29.72,West,265,7.0,7.0,17,0.00,,---,0.00,VWS V14.01,2013-06-11 01:12:00,
2013-06-10 19:17:00,72.8,26.9,29.72,NW,306,9.0,9.0,18,0.00,,---,0.00,VWS V14.01,2013-06-11 01:17:00,
2013-06-10 19:22:00,71.7,27.3,29.72,NW,324,9.0,10.0,19,0.00,,---,0.00,VWS V14.01,2013-06-11 01:22:00,
2013-06-10 19:27:00,70.9,30.2,29.72,NNW,331,10.0,12.0,22,0.00,,---,0.00,VWS V14.01,2013-06-11 01:27:00,
2013-06-10 19:32:00,70.4,27.5,29.72,NNW,329,8.0,8.0,20,0.00,,---,0.00,VWS V14.01,2013-06-11 01:32:00,
2013-06-10 19:37:00,69.8,27.0,29.72,NW,323,10.0,10.0,20,0.00,,---,0.00,VWS V14.01,2013-06-11 01:37:00,
2013-06-10 19:42:00,69.6,32.2,29.72,NNW,333,8.0,8.0,25,0.00,,---,0.00,VWS V14.01,2013-06-11 01:42:00,
2013-06-10 19:47:00,68.0,35.4,29.72,NNW,334,5.0,6.0,30,0.00,,---,0.00,VWS V14.01,2013-06-11 01:47:00,
2013-06-10 19:52:00,67.2,29.2,29.72,NNW,331,0.0,3.0,24,0.00,,---,0.00,VWS V14.01,2013-06-11 01:52:00,
2013-06-10 19:57:00,67.2,31.2,29.73,NNW,331,1.0,1.0,26,0.00,,---,0.00,VWS V14.01,2013-06-11 01:57:00,
2013-06-10 20:02:00,67.1,32.9,29.72,NNW,331,0.0,0.0,28,0.00,,---,0.00,VWS V14.01,2013-06-11 02:02:00,
2013-06-10 20:08:00,66.8,31.8,29.72,NNW,331,0.0,0.0,27,0.00,,---,0.00,VWS V14.01,2013-06-11 02:08:00,
2013-06-10 20:13:00,66.7,31.7,29.73,NNW,331,4.0,5.0,27,0.00,,---,0.00,VWS V14.01,2013-06-11 02:13:00,
2013-06-10 20:18:00,66.3,35.6,29.73,NNW,332,8.0,9.0,32,0.00,,---,0.00,VWS V14.01,2013-06-11 02:18:00,
2013-06-10 20:23:00,64.0,33.6,29.73,NNW,335,7.0,9.0,32,0.00,,---,0.00,VWS V14.01,2013-06-11 02:23:00,
2013-06-10 20:28:00,62.1,34.8,29.73,NNW,335,7.0,7.0,36,0.00,,---,0.00,VWS V14.01,2013-06-11 02:28:00,
2013-06-10 20:33:00,61.6,29.1,29.73,NNW,336,4.0,5.0,29,0.00,,---,0.00,VWS V14.01,2013-06-11 02:33:00,
2013-06-10 20:38:00,62.6,29.9,29.73,NNW,336,4.0,4.0,29,0.00,,---,0.00,VWS V14.01,2013-06-11 02:38:00,
2013-06-10 20:43:00,62.2,31.2,29.74,NNW,336,4.0,6.0,31,0.00,,---,0.00,VWS V14.01,2013-06-11 02:43:00,
2013-06-10 20:48:00,61.7,31.6,29.74,NNW,336,0.0,0.0,32,0.00,,---,0.00,VWS V14.01,2013-06-11 02:48:00,
2013-06-10 20:53:00,61.3,32.7,29.74,NNW,338,7.0,9.0,34,0.00,,---,0.00,VWS V14.01,2013-06-11 02:53:00,
2013-06-10 20:58:00,61.1,34.7,29.73,NNW,339,2.0,2.0,37,0.00,,---,0.00,VWS V14.01,2013-06-11 02:58:00,
2013-06-10 21:03:00,61.6,29.9,29.74,NNW,339,6.0,7.0,30,0.00,,---,0.00,VWS V14.01,2013-06-11 03:03:00,
2013-06-10 21:08:00,61.1,34.7,29.74,NNW,340,5.0,9.0,37,0.00,,---,0.00,VWS V14.01,2013-06-11 03:08:00,
2013-06-10 21:13:00,60.0,29.3,29.74,NNW,340,1.0,1.0,31,0.00,,---,0.00,VWS V14.01,2013-06-11 03:13:00,
2013-06-10 21:18:00,59.8,32.1,29.74,NNW,340,8.0,8.0,35,0.00,,---,0.00,VWS V14.01,2013-06-11 03:18:00,
2013-06-10 21:23:00,58.7,33.2,29.74,NNW,340,6.0,9.0,38,0.00,,---,0.00,VWS V14.01,2013-06-11 03:23:00,
2013-06-10 21:28:00,58.0,31.9,29.74,NNW,340,7.0,8.0,37,0.00,,---,0.00,VWS V14.01,2013-06-11 03:28:00,
2013-06-10 21:33:00,58.2,31.4,29.75,NNW,336,4.0,9.0,36,0.00,,---,0.00,VWS V14.01,2013-06-11 03:33:00,
2013-06-10 21:38:00,58.3,32.8,29.75,NNW,336,3.0,3.0,38,0.00,,---,0.00,VWS V14.01,2013-06-11 03:38:00,
2013-06-10 21:43:00,58.4,32.9,29.75,NNW,336,0.0,2.0,38,0.00,,---,0.00,VWS V14.01,2013-06-11 03:43:00,
2013-06-10 21:48:00,58.0,31.2,29.75,NNW,336,0.0,2.0,36,0.00,,---,0.00,VWS V14.01,2013-06-11 03:48:00,
2013-06-10 21:53:00,57.7,33.6,29.75,NNW,336,6.0,7.0,40,0.00,,---,0.00,VWS V14.01,2013-06-11 03:53:00,
2013-06-10 21:58:00,57.3,28.5,29.76,NNW,336,0.0,1.0,33,0.00,,---,0.00,VWS V14.01,2013-06-11 03:58:00,
2013-06-10 22:01:00,57.4,30.7,29.75,NNW,336,0.0,0.0,36,0.00,,---,0.00,VWS V14.01,2013-06-11 04:01:00,
2013-06-10 22:02:00,57.4,32.7,29.76,NNW,336,0.0,0.0,39,0.00,,---,0.00,VWS V14.01,2013-06-11 04:02:00,
2013-06-10 22:07:00,57.2,33.1,29.76,NNW,336,3.0,3.0,40,0.00,,---,0.00,VWS V14.01,2013-06-11 04:07:00,
2013-06-10 22:12:00,56.3,32.9,29.76,NNW,336,6.0,6.0,41,0.00,,---,0.00,VWS V14.01,2013-06-11 04:12:00,
2013-06-10 22:17:00,55.2,31.3,29.77,NNW,336,0.0,3.0,40,0.00,,---,0.00,VWS V14.01,2013-06-11 04:17:00,
2013-06-10 22:22:00,54.9,32.3,29.77,NNW,336,3.0,4.0,42,0.00,,---,0.00,VWS V14.01,2013-06-11 04:22:00,
2013-06-10 22:27:00,54.4,33.0,29.77,NNW,336,5.0,7.0,44,0.00,,---,0.00,VWS V14.01,2013-06-11 04:27:00,
2013-06-10 22:32:00,54.1,30.9,29.77,NNW,336,4.0,4.0,41,0.00,,---,0.00,VWS V14.01,2013-06-11 04:32:00,
2013-06-10 22:37:00,53.5,33.2,29.77,NNW,336,10.0,10.0,46,0.00,,---,0.00,VWS V14.01,2013-06-11 04:37:00,
2013-06-10 22:42:00,52.6,32.4,29.77,NNW,338,9.0,9.0,46,0.00,,---,0.00,VWS V14.01,2013-06-11 04:42:00,
2013-06-10 22:47:00,52.0,32.9,29.78,NNW,338,8.0,10.0,48,0.00,,---,0.00,VWS V14.01,2013-06-11 04:47:00,
2013-06-10 22:52:00,51.4,30.8,29.78,NNW,338,2.0,3.0,45,0.00,,---,0.00,VWS V14.01,2013-06-11 04:52:00,
2013-06-10 22:57:00,52.1,32.5,29.78,NNW,338,5.0,8.0,47,0.00,,---,0.00,VWS V14.01,2013-06-11 04:57:00,
2013-06-10 23:02:00,52.3,32.7,29.78,NNW,338,2.0,5.0,47,0.00,,---,0.00,VWS V14.01,2013-06-11 05:02:00,
2013-06-10 23:07:00,52.1,33.0,29.78,NNW,338,7.0,7.0,48,0.00,,---,0.00,VWS V14.01,2013-06-11 05:07:00,
2013-06-10 23:12:00,51.4,32.4,29.78,NNW,338,9.0,11.0,48,0.00,,---,0.00,VWS V14.01,2013-06-11 05:12:00,
2013-06-10 23:17:00,50.7,32.8,29.78,NNW,341,9.0,11.0,50,0.00,,---,0.00,VWS V14.01,2013-06-11 05:17:00,
2013-06-10 23:22:00,50.3,31.9,29.78,NNW,340,6.0,8.0,49,0.00,,---,0.00,VWS V14.01,2013-06-11 05:22:00,
2013-06-10 23:27:00,50.3,30.3,29.78,NNW,340,0.0,0.0,46,0.00,,---,0.00,VWS V14.01,2013-06-11 05:27:00,
2013-06-10 23:32:00,50.6,31.1,29.78,NNW,340,1.0,2.0,47,0.00,,---,0.00,VWS V14.01,2013-06-11 05:32:00,
2013-06-10 23:37:00,50.9,30.3,29.78,NNW,340,4.0,4.0,45,0.00,,---,0.00,VWS V14.01,2013-06-11 05:37:00,
2013-06-10 23:42:00,50.9,32.4,29.78,NNW,340,8.0,8.0,49,0.00,,---,0.00,VWS V14.01,2013-06-11 05:42:00,
2013-06-10 23:47:00,49.9,32.0,29.78,NNW,340,7.0,7.0,50,0.00,,---,0.00,VWS V14.01,2013-06-11 05:47:00,
2013-06-10 23:52:00,49.4,31.1,29.78,NNW,340,0.0,0.0,49,0.00,,---,0.00,VWS V14.01,2013-06-11 05:52:00,
2013-06-10 23:57:00,49.2,32.3,29.78,NNW,340,6.0,7.0,52,0.00,,---,0.00,VWS V14.01,2013-06-11 05:57:00,